Location: Austin
(30.3000°N, 97.7500°W)
Time: 06:04:32
(UTC-05:00)

IDEFIX/ARIANE 42P - Pass Details

Date: 16 June 2025
Orbit: 781 x 797 km, 98.6° (Epoch: 07 July)

Event Time Altitude Azimuth Distance (km) Brightness Sun altitude
Rises 02:29:07 0° 22° (NNE) 3,295 6.8 -34.6°
Reaches altitude 10° 02:31:36 10° 30° (NNE) 2,360 5.8 -34.5°
Enters shadow 02:34:48 31° 59° (ENE) 1,364 4.1 -34.2°
